Lumberton, NC

7:12 AM EST on February 11, 2016 (GMT -0500)
Lumberton Municipal

Weather History for KLBT - March, 2012

Change the Weather History Date:

Sunday, March 4, 2012

  Actual Average Record
Temperature  
Mean Temperature 45 °F 51 °F  
Max Temperature 56 °F 63 °F 79 °F (2004)
Min Temperature 34 °F 39 °F 19 °F (2009)
Degree Days  
Heating Degree Days 20 14  
Month to date heating degree days 25 59  
Since 1 July heating degree days 1873 2289  
Cooling Degree Days 0 0  
Month to date cooling degree days 6 0  
Year to date cooling degree days 6 3  
Moisture  
Dew Point 37 °F    
Average Humidity 61    
Maximum Humidity 93    
Minimum Humidity 28    
Precipitation  
Precipitation 0.74 in 0.11 in 0.78 in (2008)
Month to date precipitation 1.68 0.46  
Year to date precipitation 6.20 6.33  
Sea Level Pressure  
Sea Level Pressure 29.82 in    
Wind  
Wind Speed 8 mph (NW)    
Max Wind Speed 26 mph    
Max Gust Speed 37 mph    
Visibility 8 miles    
Events Rain    
T = Trace of Precipitation, MM = Missing Value Source: NWS Daily Summary

Daily Weather History Graph

Daily Weather History Graph

Search for Another Location

Airport or City:

Trip Planner

Search our weather history database for the weather conditions in past years. The results will help you decide how hot, cold, wet, or windy it might be!

Date:

Astronomy

Mar. 04, 2012 Rise Set
Actual Time 6:40 AM EST 6:15 PM EST
Civil Twilight 6:15 AM EST 6:40 PM EST
Nautical Twilight 5:46 AM EST 7:09 PM EST
Astronomical Twilight 5:17 AM EST 7:38 PM EST
Moon 2:33 PM EST (3/4) 3:51 AM EST (3/4)
Length of Visible Light 12h 24m
Length of Day
11h 34m
Waxing Gibbous, 83% of the Moon is Illuminated
Mar 4
Waxing Gibbous
Mar 8
Full
Mar 14
Last Quarter
Mar 22
New
Mar 30
First Quarter

Hourly Weather History & Observations

Time (EST) Temp. Windchill Dew Point Humidity Pressure Visibility Wind Dir Wind Speed Gust Speed Precip Events Conditions
12:54 AM 53.1 °F - 51.1 °F 93% 29.70 in 4.0 mi NNE 3.5 mph - 0.07 in Rain Rain
1:54 AM 51.1 °F - 48.0 °F 89% 29.73 in 4.0 mi WNW 4.6 mph - 0.11 in Rain Rain
2:34 AM 50.0 °F - 48.2 °F 94% 29.69 in 2.5 mi NNE 5.8 mph - 0.09 in Rain Rain
2:54 AM 50.0 °F - 48.0 °F 93% 29.70 in 4.0 mi NNE 5.8 mph - 0.13 in Rain Rain
3:54 AM 48.0 °F - 44.1 °F 86% 29.68 in 4.0 mi NNW 10.4 mph - 0.09 in Rain Rain
4:54 AM 46.9 °F - 45.0 °F 93% 29.68 in 4.0 mi NNW 9.2 mph - 0.10 in Rain Rain
5:54 AM 45.0 °F 40.1 °F 43.0 °F 93% 29.69 in 4.0 mi North 9.2 mph - 0.13 in Rain Rain
6:54 AM 45.0 °F 43.5 °F 42.1 °F 90% 29.71 in 10.0 mi Variable 3.5 mph - 0.12 in   Overcast
8:54 AM 46.0 °F 43.1 °F 43.0 °F 89% 29.76 in 10.0 mi NW 5.8 mph - N/A   Overcast
9:15 AM 46.4 °F 43.5 °F 42.8 °F 87% 29.79 in 10.0 mi WNW 5.8 mph - N/A   Overcast
9:54 AM 46.9 °F - 43.0 °F 86% 29.80 in 10.0 mi West 6.9 mph - N/A   Mostly Cloudy
10:54 AM 48.9 °F - 42.1 °F 77% 29.79 in 10.0 mi NW 8.1 mph - N/A   Partly Cloudy
11:54 AM 53.1 °F - 37.0 °F 55% 29.78 in 10.0 mi North 11.5 mph 16.1 mph N/A   Clear
12:54 PM 53.1 °F - 36.0 °F 52% 29.76 in 10.0 mi West 9.2 mph 18.4 mph N/A   Scattered Clouds
1:54 PM 55.0 °F - 34.0 °F 45% 29.76 in 10.0 mi WNW 10.4 mph - N/A   Mostly Cloudy
2:54 PM 52.0 °F - 32.0 °F 47% 29.77 in 10.0 mi WSW 13.8 mph - 0.00 in   Overcast
3:54 PM 55.0 °F - 30.0 °F 38% 29.79 in 10.0 mi WNW 13.8 mph 19.6 mph N/A   Overcast
4:54 PM 54.0 °F - 21.9 °F 29% 29.82 in 10.0 mi West 17.3 mph 29.9 mph N/A   Clear
5:54 PM 50.0 °F - 25.0 °F 38% 29.88 in 10.0 mi West 20.7 mph 26.5 mph N/A   Overcast
6:54 PM 48.0 °F - 27.0 °F 44% 29.94 in 10.0 mi West 13.8 mph 20.7 mph N/A   Mostly Cloudy
7:54 PM 45.0 °F 40.6 °F 27.0 °F 49% 29.98 in 10.0 mi West 8.1 mph - N/A   Clear
8:54 PM 43.0 °F 38.8 °F 24.1 °F 47% 30.01 in 10.0 mi West 6.9 mph - N/A   Clear
9:54 PM 41.0 °F 38.0 °F 24.1 °F 51% 30.04 in 10.0 mi West 4.6 mph - N/A   Clear
10:54 PM 36.0 °F - 28.9 °F 76% 30.06 in 10.0 mi Calm Calm - N/A   Clear
11:54 PM 34.0 °F - 30.9 °F 89% 30.08 in 10.0 mi Calm Calm - N/A   Clear